Wind_Speed
8 8 8 8 8 9 12 9 9 8 7 7 8 8 7 8 9 9 7 3 6 6 4 3 4 4 2 3 3 3 3 4 6 9 10 11 11 13 14 15 16 15 17 18 19 18 15 13 12
7 7 7 6 6 9 9 7 6 6 7 6 6 7 7 7 7 6 8 7 5 7 9 8 6 6 7 6 5 4 4 5 6 6 7 8 11 12 12 12 14 12 14 15 15 15 14 14 14
8 8 9 9 9 8 6 6 8 8 8 7 7 6 7 7 8 8 6 6 6 5 8 11 11 9 8 9 9 7 7 7 7 6 7 8 9 10 13 14 13 13 15 16 17 16 16 16 17
10 10 11 11 11 9 8 8 9 10 12 12 10 8 9 8 8 9 9 8 6 6 6 7 10 12 12 12 12 12 11 10 10 10 9 8 9 9 10 13 15 16 16 16 16 17 18 18 18
11 12 13 14 15 14 13 12 12 14 15 14 16 17 12 11 10 10 11 10 9 8 7 8 7 8 11 14 14 15 14 15 14 13 12 11 11 11 10 12 13 13 14 16 16 17 17 17 17
13 13 14 15 17 16 16 17 17 17 18 18 19 20 21 18 16 14 14 14 13 12 10 10 10 9 8 9 12 15 17 17 17 18 17 15 14 14 13 13 13 13 14 14 16 16 16 14 15
15 13 15 14 16 17 15 18 19 20 20 21 20 22 23 19 21 19 19 17 17 16 15 13 12 12 13 12 11 11 13 16 20 20 20 20 19 18 17 17 17 18 17 17 18 19 17 17 18
16 14 14 13 17 18 17 19 19 19 20 20 21 22 22 21 21 22 21 21 20 20 20 19 18 16 15 14 13 13 13 13 14 17 20 22 22 21 21 21 21 21 21 21 22 22 22 22 22
17 15 15 17 20 21 20 17 21 19 20 22 20 22 23 19 21 20 21 21 21 22 21 22 22 22 21 20 18 17 16 15 16 15 15 16 19 22 23 24 25 25 25 26 26 26 26 26 25
19 17 18 21 23 25 25 24 24 22 24 25 25 24 23 23 22 20 20 19 19 21 23 24 25 25 25 24 24 24 23 21 20 19 19 18 17 19 19 21 23 24 26 29 30 30 31 30 29
21 23 25 26 28 27 28 28 28 27 24 30 28 25 26 26 23 22 24 24 21 21 22 24 26 27 28 28 27 28 27 27 26 25 24 24 21 21 22 23 22 23 23 25 27 30 33 34 35
24 27 30 28 29 25 27 27 29 25 25 31 30 29 28 29 32 30 28 28 27 25 23 22 25 24 26 28 27 27 28 29 31 31 29 29 28 27 28 26 27 26 26 26 27 28 29 31 34
29 28 29 30 29 30 29 29 30 25 26 26 29 30 30 32 35 37 32 30 30 28 27 24 22 25 25 27 28 27 27 27 29 31 31 31 32 32 33 33 33 32 31 29 30 29 29 30 31
32 32 30 31 33 33 29 28 33 29 27 28 29 32 34 35 37 38 38 33 29 28 28 28 28 27 29 28 29 30 30 29 27 29 29 30 31 33 34 35 36 36 37 34 35 33 32 32 31
34 37 35 35 38 38 35 29 35 35 32 26 29 34 35 38 39 35 33 35 34 33 31 31 30 30 32 34 34 35 34 34 32 32 31 30 31 32 34 36 37 38 39 39 39 37 37 36 35
39 40 39 39 40 42 42 33 32 37 38 32 35 34 36 40 39 36 36 35 36 36 33 32 32 31 30 33 34 33 34 36 37 36 36 34 33 34 33 35 37 38 39 39 39 40 40 40 39
40 45 45 46 40 44 47 45 34 37 37 38 37 37 38 37 35 36 35 35 36 35 35 36 34 33 33 32 35 37 34 34 35 37 39 38 38 38 36 37 38 39 39 40 40 40 42 43 43
45 46 48 49 46 46 48 48 50 41 39 39 38 37 38 31 32 34 36 36 34 34 33 34 33 32 34 36 33 33 33 33 33 34 36 39 40 43 42 41 42 42 41 42 42 43 44 45 45
50 54 54 50 49 51 47 50 53 51 41 36 38 44 40 34 34 35 35 36 37 35 31 32 33 31 31 34 35 36 36 37 38 36 37 36 38 41 45 45 46 46 46 46 46 45 45 45 47
54 57 56 55 52 53 50 50 45 47 48 51 41 37 39 40 37 36 37 38 39 38 39 37 36 37 39 37 39 40 40 39 36 37 35 36 36 36 39 44 48 48 49 51 49 47 48 49 48
54 53 53 53 52 51 53 56 53 45 44 45 42 38 35 36 37 38 35 36 38 38 40 39 37 38 38 40 40 36 36 38 35 36 36 39 38 38 38 40 43 46 49 53 54 54 53 53 53
47 47 47 47 49 54 55 58 51 46 52 53 49 46 43 43 43 43 44 44 42 43 43 41 37 36 38 40 41 40 38 42 44 46 48 46 46 46 44 44 47 47 48 51 52 53 53 56 57
47 46 48 50 51 52 53 52 53 53 57 58 55 54 48 45 45 40 42 45 45 46 48 48 46 39 42 44 48 49 54 51 52 51 53 54 55 55 54 53 52 52 52 52 52 52 52 52 53
50 51 50 50 52 56 53 56 60 55 56 60 56 52 54 49 44 38 37 43 50 48 47 48 48 47 50 50 54 57 60 65 62 60 57 56 59 61 62 63 62 62 60 59 58 57 55 54 55
47 48 50 54 55 55 57 60 58 60 61 62 60 60 58 53 52 45 51 55 57 54 55 55 55 58 55 59 60 65 68 73 70 67 65 64 66 66 65 66 67 68 68 67 65 64 62 61 61
49 50 50 54 55 57 56 60 58 56 58 62 57 56 58 63 65 63 62 61 59 60 58 59 61 61 62 64 68 73 78 77 75 72 72 73 74 73 71 70 72 74 73 73 72 71 69 67 67
55 55 55 59 60 60 56 57 58 59 59 59 61 62 63 67 69 66 66 65 65 65 65 65 66 65 66 67 68 68 68 68 69 69 71 73 72 75 75 75 76 79 79 79 79 77 76 72 73
52 55 57 59 60 61 58 55 54 54 57 60 63 65 65 65 65 66 67 66 68 69 71 68 67 69 71 73 71 68 68 71 72 73 75 78 76 76 78 80 77 75 78 80 81 80 79 76 73
51 52 52 55 56 59 59 58 51 57 58 60 60 63 66 65 64 67 70 72 72 71 70 71 71 71 74 73 73 76 77 75 74 76 76 79 80 82 83 85 85 82 77 77 78 79 77 77 78
51 51 53 58 59 60 61 60 51 51 58 62 65 67 67 69 72 75 75 70 71 70 70 69 71 72 75 75 78 81 82 80 79 81 78 76 76 84 90 90 90 88 87 87 86 84 83 78 78
Wind_Direction
73 69 63 54 42 31 39 44 36 33 30 29 29 30 30 27 25 22 26 312 271 267 260 257 284 296 303 340 323 268 256 244 236 235 235 232 224 223 229 229 222 219 226 233 234 232 228 237 244
44 33 27 28 14 3 24 20 16 6 2 8 20 18 16 13 15 10 6 14 326 280 261 255 245 255 274 278 273 282 282 266 250 247 241 236 229 228 230 231 231 222 220 222 233 236 244 248 254
6 355 347 344 341 352 357 349 335 333 327 337 347 353 346 356 353 354 351 351 353 335 286 269 262 254 251 259 267 264 261 267 274 265 254 254 248 234 234 234 232 234 233 239 240 241 246 248 256
341 337 328 326 324 328 322 319 314 311 315 320 320 320 321 325 328 336 338 333 329 328 322 306 277 266 257 255 256 257 256 259 261 262 264 256 256 256 251 244 237 237 236 238 242 244 245 246 242
321 320 319 317 317 319 313 307 303 304 305 307 306 304 302 302 304 306 309 314 316 310 304 304 303 291 270 259 254 256 259 257 256 259 259 259 255 255 251 252 253 247 244 241 240 243 247 246 250
310 313 314 315 314 316 317 311 304 299 299 302 301 298 298 300 296 294 292 292 297 298 300 291 289 289 284 277 267 260 257 258 259 259 258 260 263 259 256 253 251 252 250 248 245 248 248 253 252
301 305 308 310 307 311 320 310 305 304 305 301 298 296 296 306 299 296 290 287 285 287 288 290 286 284 280 279 278 276 272 264 260 259 260 260 259 260 262 260 258 256 254 251 246 244 245 246 250
293 297 297 296 298 302 312 308 305 303 302 301 302 299 298 307 299 295 292 288 285 282 280 280 280 279 279 281 280 276 275 276 273 268 261 261 261 260 259 260 262 263 261 258 256 257 254 257 259
289 293 291 292 295 298 299 296 294 298 297 297 306 300 306 309 304 301 295 290 285 282 277 276 277 280 280 278 275 275 275 272 269 269 269 267 264 262 262 262 260 258 258 259 259 259 258 258 258
287 288 288 296 296 295 295 291 289 292 294 292 296 303 308 304 305 302 293 289 288 285 282 279 273 273 274 273 271 270 271 270 270 268 267 264 264 267 267 266 265 265 263 260 258 256 258 261 260
287 285 289 294 291 291 287 287 287 289 297 291 290 297 300 302 299 293 291 291 287 282 282 277 275 272 271 270 270 273 270 268 269 267 267 266 263 264 266 268 269 268 265 265 265 264 261 260 261
285 287 291 291 295 294 289 291 287 293 283 283 292 294 294 292 293 288 291 290 286 282 277 273 278 275 274 273 274 277 278 274 269 268 270 273 272 269 267 266 267 267 267 267 265 263 263 263 262
288 287 286 290 292 291 291 294 295 292 286 288 288 289 288 287 285 285 285 287 288 287 283 281 275 278 273 271 270 272 275 278 277 272 269 267 268 269 269 270 270 268 267 266 266 267 265 262 261
292 287 286 288 288 288 288 291 294 291 290 286 286 284 282 282 282 282 283 285 287 287 285 285 285 278 272 267 266 266 268 270 271 274 272 271 266 265 265 266 268 270 270 269 268 268 267 267 266
286 286 289 288 289 291 285 285 291 296 290 287 284 280 280 280 278 283 292 294 290 283 282 282 281 279 280 277 272 271 268 266 265 266 269 269 269 269 266 264 264 265 267 268 268 266 266 266 265
287 286 285 284 287 289 286 281 289 292 294 296 287 282 283 280 284 289 285 281 281 281 280 280 281 283 273 274 277 276 276 274 269 265 263 263 265 263 263 264 263 263 264 265 265 266 266 265 265
287 285 287 288 287 286 288 290 285 289 290 292 292 287 280 284 289 284 282 283 281 279 280 280 279 276 276 272 272 275 274 272 271 267 263 259 258 259 256 258 261 263 265 266 266 266 264 262 263
284 286 286 285 289 286 288 292 292 292 293 295 289 287 290 289 283 283 285 286 284 282 281 280 278 273 272 272 269 271 275 274 274 273 268 263 259 261 258 256 257 260 265 267 268 267 265 264 263
284 285 284 283 282 285 286 289 293 297 297 287 288 290 293 290 284 284 281 282 283 287 285 285 281 275 275 273 267 272 272 269 271 273 273 272 270 265 263 262 263 264 264 262 264 266 268 267 266
282 285 286 286 287 288 289 286 285 290 296 293 291 287 287 288 286 287 285 283 284 283 283 281 281 279 272 265 264 270 270 268 265 266 267 270 269 269 270 269 264 263 266 268 268 266 266 266 266
276 278 280 283 284 284 287 288 290 293 288 285 293 297 290 289 288 288 287 284 281 281 283 284 284 277 272 272 266 264 267 263 264 266 267 269 266 263 263 266 268 268 266 266 269 272 271 268 267
275 276 278 279 282 286 287 287 292 299 292 292 293 295 299 299 297 295 293 290 289 289 290 288 286 276 271 270 260 261 267 265 268 272 270 268 270 270 264 262 265 264 265 269 271 271 269 268 268
277 275 276 280 283 283 284 293 297 299 300 303 304 306 304 303 302 295 291 293 291 290 290 289 286 276 267 272 260 257 268 273 276 274 270 266 267 267 266 267 264 264 264 263 265 267 269 268 268
271 274 277 278 280 280 287 293 291 299 301 303 305 301 300 301 299 286 277 279 286 284 281 279 271 274 262 264 264 259 266 273 275 274 267 266 264 264 265 266 265 262 263 262 262 262 262 264 265
273 278 279 280 282 286 289 293 292 295 299 297 295 295 295 296 298 283 281 283 286 285 280 277 272 272 267 263 262 262 263 272 272 271 268 264 265 264 262 260 262 260 261 259 258 258 259 259 260
281 283 284 286 288 286 286 289 292 293 294 293 292 291 290 292 294 290 286 284 283 281 278 276 274 271 270 270 267 262 265 271 273 270 265 263 265 266 263 258 255 255 256 257 259 258 258 259 259
287 287 286 285 286 284 289 289 288 290 290 288 286 287 288 288 287 285 285 285 285 284 283 280 278 277 275 271 268 268 270 270 270 267 263 265 265 263 261 260 257 254 253 254 255 256 257 258 261
281 279 281 282 284 283 282 279 285 287 283 280 279 280 282 282 280 280 279 280 282 282 281 279 278 275 273 272 270 269 271 272 271 267 263 260 261 261 261 262 261 258 257 255 254 253 255 256 258
274 276 279 280 279 281 282 281 286 283 279 280 281 280 278 278 277 279 280 282 282 282 281 280 280 277 275 271 268 270 273 273 271 269 267 266 263 260 260 260 261 259 258 257 256 256 255 256 257
277 281 280 280 283 282 283 284 286 276 276 278 277 274 275 276 278 278 279 280 284 284 282 279 277 273 272 271 271 274 276 277 273 271 271 269 267 262 259 259 261 263 260 259 260 257 257 256 257
Height
5869 5869 5869 5868 5870 5866 5864 5865 5864 5863 5863 5862 5861 5860 5859 5858 5858 5859 5856 5856 5856 5856 5856 5856 5857 5857 5857 5857 5857 5858 5858 5858 5858 5859 5859 5860 5861 5862 5863 5864 5865 5866 5867 5869 5871 5872 5873 5874 5875
5870 5870 5870 5869 5869 5866 5865 5865 5864 5863 5863 5862 5862 5861 5860 5860 5858 5857 5856 5856 5856 5856 5856 5856 5857 5857 5857 5857 5858 5858 5858 5858 5859 5859 5859 5860 5860 5861 5862 5863 5864 5865 5866 5867 5870 5871 5873 5874 5874
5871 5870 5870 5869 5867 5866 5866 5865 5864 5864 5862 5862 5862 5862 5860 5860 5858 5857 5857 5856 5856 5855 5855 5855 5856 5856 5857 5857 5858 5858 5858 5859 5859 5859 5859 5860 5860 5861 5862 5862 5863 5864 5865 5866 5868 5870 5872 5873 5873
5871 5871 5870 5868 5866 5866 5866 5865 5865 5863 5862 5862 5861 5861 5860 5859 5858 5857 5857 5856 5855 5855 5855 5854 5854 5855 5855 5856 5857 5857 5857 5858 5858 5859 5859 5858 5859 5860 5861 5861 5863 5863 5865 5865 5866 5868 5869 5870 5871
5870 5869 5868 5867 5866 5865 5865 5864 5864 5863 5862 5861 5859 5859 5859 5858 5858 5857 5856 5856 5855 5854 5854 5853 5853 5853 5853 5854 5855 5855 5855 5856 5856 5857 5858 5858 5858 5859 5860 5861 5861 5862 5863 5864 5865 5866 5867 5867 5869
5868 5867 5866 5865 5863 5863 5864 5863 5862 5860 5860 5859 5858 5856 5856 5856 5857 5856 5855 5854 5854 5853 5853 5852 5852 5851 5851 5851 5852 5852 5852 5853 5854 5854 5855 5856 5857 5858 5859 5859 5860 5861 5862 5863 5864 5864 5866 5865 5867
5866 5866 5864 5863 5861 5861 5862 5860 5859 5858 5857 5856 5855 5854 5852 5855 5853 5853 5852 5852 5851 5850 5850 5851 5850 5850 5850 5850 5850 5850 5850 5850 5851 5851 5852 5853 5854 5855 5856 5857 5858 5859 5860 5860 5861 5863 5862 5864 5865
5863 5863 5862 5860 5859 5858 5858 5857 5856 5855 5854 5853 5852 5851 5850 5850 5850 5849 5848 5848 5847 5847 5847 5848 5848 5848 5848 5848 5848 5848 5848 5848 5848 5848 5849 5850 5850 5852 5853 5854 5854 5855 5856 5857 5858 5859 5860 5861 5861
5860 5861 5860 5858 5856 5854 5855 5855 5853 5853 5851 5849 5851 5849 5847 5847 5845 5844 5843 5843 5843 5843 5844 5844 5845 5845 5846 5846 5846 5846 5846 5845 5845 5845 5846 5846 5846 5847 5848 5849 5851 5852 5853 5853 5854 5855 5856 5857 5858
5857 5857 5856 5855 5853 5851 5850 5849 5848 5850 5848 5846 5845 5845 5845 5842 5841 5840 5839 5839 5839 5839 5840 5840 5840 5840 5840 5841 5842 5842 5842 5842 5842 5842 5842 5843 5844 5844 5844 5845 5846 5846 5847 5849 5850 5851 5852 5853 5854
5854 5852 5851 5850 5848 5847 5845 5845 5843 5844 5846 5840 5841 5842 5841 5837 5837 5836 5835 5834 5834 5835 5833 5833 5833 5834 5834 5834 5834 5835 5836 5836 5837 5837 5838 5838 5839 5840 5840 5840 5841 5842 5842 5843 5843 5844 5846 5847 5849
5848 5847 5845 5845 5842 5842 5840 5839 5838 5841 5839 5835 5835 5836 5836 5834 5830 5829 5829 5830 5829 5828 5827 5828 5827 5828 5828 5829 5830 5830 5830 5830 5831 5831 5832 5833 5834 5835 5834 5835 5835 5836 5837 5838 5838 5839 5839 5840 5841
5842 5842 5840 5837 5838 5836 5836 5835 5831 5835 5833 5833 5830 5829 5828 5827 5823 5820 5823 5823 5822 5823 5822 5821 5823 5821 5822 5823 5823 5824 5824 5824 5824 5824 5825 5826 5825 5827 5827 5828 5829 5830 5831 5832 5831 5833 5833 5834 5834
5836 5835 5834 5833 5830 5830 5832 5831 5824 5827 5828 5827 5825 5822 5820 5818 5816 5813 5812 5815 5816 5817 5817 5817 5816 5817 5815 5815 5815 5817 5817 5817 5818 5816 5817 5817 5818 5819 5819 5819 5820 5821 5822 5824 5824 5825 5826 5826 5827
5828 5826 5827 5825 5822 5820 5822 5828 5821 5819 5819 5822 5818 5814 5813 5808 5805 5806 5810 5811 5810 5810 5810 5810 5810 5809 5808 5807 5808 5808 5809 5810 5811 5810 5810 5810 5810 5810 5810 5810 5811 5811 5812 5814 5814 5815 5817 5818 5819
5821 5817 5816 5817 5814 5811 5810 5819 5818 5812 5810 5813 5809 5808 5805 5799 5801 5805 5803 5801 5799 5799 5800 5801 5801 5800 5800 5799 5798 5799 5800 5801 5802 5803 5802 5802 5802 5802 5802 5802 5802 5802 5803 5804 5804 5806 5807 5808 5809
5813 5808 5807 5805 5809 5803 5798 5800 5812 5808 5805 5804 5802 5798 5794 5796 5797 5792 5793 5795 5793 5793 5793 5792 5791 5792 5790 5791 5790 5789 5789 5790 5791 5793 5793 5794 5792 5791 5793 5793 5793 5794 5795 5794 5796 5796 5797 5797 5798
5800 5799 5796 5794 5797 5795 5791 5790 5788 5797 5799 5796 5794 5791 5789 5790 5788 5786 5784 5784 5786 5786 5786 5785 5784 5783 5781 5781 5781 5780 5780 5781 5782 5782 5783 5783 5785 5784 5784 5784 5783 5784 5785 5786 5786 5786 5787 5788 5788
5792 5789 5787 5787 5785 5785 5790 5786 5782 5781 5786 5788 5786 5781 5783 5783 5780 5778 5776 5775 5775 5776 5777 5777 5776 5776 5774 5773 5771 5770 5771 5771 5770 5771 5772 5774 5775 5775 5773 5775 5776 5777 5776 5774 5775 5776 5777 5778 5779
5781 5777 5778 5776 5775 5774 5776 5776 5779 5777 5774 5770 5777 5777 5776 5773 5772 5772 5770 5768 5767 5766 5767 5767 5767 5767 5766 5764 5763 5762 5762 5761 5761 5760 5760 5761 5763 5765 5764 5763 5764 5766 5767 5766 5766 5766 5765 5766 5768
5771 5769 5768 5767 5767 5765 5759 5759 5764 5770 5767 5763 5764 5766 5766 5765 5764 5763 5761 5760 5758 5756 5755 5755 5756 5755 5754 5756 5755 5752 5752 5751 5752 5752 5752 5751 5750 5750 5752 5751 5750 5752 5753 5753 5754 5756 5756 5755 5756
5762 5760 5758 5757 5756 5755 5750 5745 5752 5756 5749 5750 5754 5754 5753 5751 5751 5751 5751 5750 5749 5747 5745 5744 5743 5743 5744 5744 5744 5745 5744 5743 5742 5742 5742 5741 5740 5739 5739 5739 5738 5738 5739 5740 5741 5741 5743 5743 5744
5750 5750 5750 5749 5747 5745 5745 5741 5741 5738 5733 5734 5735 5735 5735 5737 5738 5737 5735 5734 5734 5734 5734 5733 5732 5732 5731 5732 5732 5731 5729 5730 5730 5730 5728 5728 5729 5727 5726 5727 5726 5725 5725 5725 5725 5726 5727 5727 5729
5742 5741 5741 5738 5737 5737 5738 5731 5734 5730 5725 5724 5723 5722 5722 5722 5723 5724 5723 5720 5719 5719 5719 5718 5718 5718 5718 5716 5715 5714 5713 5712 5713 5712 5713 5713 5712 5711 5711 5712 5711 5711 5710 5710 5709 5710 5710 5712 5713
5733 5731 5728 5724 5725 5727 5724 5719 5725 5720 5719 5717 5714 5712 5710 5709 5708 5709 5708 5706 5704 5703 5702 5701 5701 5701 5702 5701 5699 5697 5695 5694 5694 5693 5693 5693 5694 5693 5693 5694 5694 5694 5694 5694 5693 5693 5694 5694 5695
5721 5719 5717 5711 5715 5713 5717 5713 5715 5712 5708 5703 5701 5700 5698 5695 5694 5693 5690 5689 5688 5687 5687 5686 5684 5683 5682 5681 5680 5679 5678 5674 5672 5672 5672 5672 5672 5673 5673 5674 5673 5673 5672 5675 5676 5676 5676 5677 5678
5708 5705 5704 5697 5696 5694 5706 5706 5702 5703 5697 5691 5689 5686 5684 5681 5678 5675 5672 5669 5668 5665 5665 5665 5664 5663 5661 5660 5658 5656 5655 5654 5652 5651 5650 5649 5650 5650 5650 5650 5652 5652 5651 5651 5652 5656 5657 5656 5659
5692 5689 5689 5687 5678 5675 5681 5688 5692 5685 5678 5675 5675 5672 5669 5666 5662 5658 5654 5653 5651 5648 5643 5642 5642 5642 5641 5639 5637 5635 5634 5633 5632 5631 5630 5629 5629 5628 5627 5627 5628 5629 5630 5630 5631 5633 5634 5636 5637
5677 5677 5675 5674 5670 5661 5661 5669 5683 5671 5663 5658 5655 5652 5649 5646 5644 5640 5636 5632 5630 5629 5626 5624 5622 5620 5618 5617 5616 5615 5613 5612 5611 5610 5608 5608 5607 5607 5606 5604 5603 5604 5604 5606 5608 5610 5610 5612 5616
5663 5664 5660 5653 5656 5649 5643 5644 5672 5653 5646 5639 5637 5634 5634 5630 5626 5621 5617 5614 5611 5609 5607 5605 5603 5603 5599 5596 5594 5593 5592 5591 5589 5587 5585 5585 5584 5584 5582 5583 5583 5582 5580 5581 5584 5586 5586 5587 5591